| time (UTC) | temp F | wind direction | speed MPH | gust MPH | rain 1hr in | rain 24hr in | rain mn in | humidity % | barometer mb |
| 20260904194533 | 90 | 234 | 7.0 | 21.0 | 0.00 | 0.00 | 0.00 | 21 | 1003.9 |
| 20260904193033 | 90 | 213 | 11.0 | 20.0 | 0.00 | 0.00 | 0.00 | 21 | 1003.9 |
| 20260904191529 | 89 | 237 | 8.0 | 24.0 | 0.00 | 0.00 | 0.00 | 24 | 1003.8 |
| 20260904190029 | 89 | 205 | 7.0 | 17.0 | 0.00 | 0.00 | 0.00 | 26 | 1004.1 |
| 20260904184527 | 88 | 182 | 8.0 | 15.0 | 0.00 | 0.00 | 0.00 | 26 | 1004.4 |
| 20260904183028 | 88 | 218 | 11.0 | 20.0 | 0.00 | 0.00 | 0.00 | 27 | 1004.6 |
| 20260904181524 | 88 | 204 | 10.0 | 19.0 | 0.00 | 0.00 | 0.00 | 26 | 1004.7 |
| 20260904180022 | 87 | 170 | 9.0 | 20.0 | 0.00 | 0.00 | 0.00 | 29 | 1004.7 |
| 20260904174520 | 87 | 186 | 8.0 | 20.0 | 0.00 | 0.00 | 0.00 | 29 | 1005.0 |
| 20260904173017 | 86 | 178 | 3.0 | 15.0 | 0.00 | 0.00 | 0.00 | 32 | 1005.0 |
| 20260904171514 | 85 | 171 | 10.0 | 21.0 | 0.00 | 0.00 | 0.00 | 33 | 1005.0 |
| 20260904170017 | 85 | 168 | 11.0 | 17.0 | 0.00 | 0.00 | 0.00 | 33 | 1005.1 |
| 20260904164512 | 85 | 176 | 5.0 | 15.0 | 0.00 | 0.00 | 0.00 | 35 | 1005.1 |
| 20260904163009 | 84 | 165 | 3.0 | 8.0 | 0.00 | 0.00 | 0.00 | 34 | 1005.1 |
| 20260904161506 | 82 | 118 | 0.0 | 6.0 | 0.00 | 0.00 | 0.00 | 35 | 1005.2 |
| 20260904160008 | 82 | 205 | 0.0 | 6.0 | 0.00 | 0.00 | 0.00 | 35 | 1005.3 |
| 20260904154501 | 81 | 171 | 2.0 | 7.0 | 0.00 | 0.00 | 0.00 | 36 | 1005.4 |
| 20260904153122 | 79 | 157 | 3.0 | 6.0 | 0.00 | 0.00 | 0.00 | 36 | 1005.4 |
| 20260904151552 | 77 | 167 | 1.0 | 5.0 | 0.00 | 0.00 | 0.00 | 38 | 1005.4 |
| 20260904150049 | 75 | 166 | 1.0 | 4.0 | 0.00 | 0.00 | 0.00 | 39 | 1005.5 |
| 20260904144545 | 74 | 164 | 0.0 | 1.0 | 0.00 | 0.00 | 0.00 | 39 | 1005.6 |
| 20260904143038 | 71 | 164 | 0.0 | 3.0 | 0.00 | 0.00 | 0.00 | 42 | 1005.5 |
| 20260904141541 | 70 | 164 | 2.0 | 6.0 | 0.00 | 0.00 | 0.00 | 44 | 1005.4 |
| 20260904140037 | 67 | 154 | 2.0 | 6.0 | 0.00 | 0.00 | 0.00 | 48 | 1005.3 |
| 20260904134536 | 65 | 157 | 0.0 | 1.0 | 0.00 | 0.00 | 0.00 | 52 | 1005.1 |
| 20260904133033 | 64 | 157 | 0.0 | 2.0 | 0.00 | 0.00 | 0.00 | 53 | 1004.9 |
| 20260904131539 | 62 | 157 | 0.0 | 3.0 | 0.00 | 0.00 | 0.00 | 55 | 1004.6 |
| 20260904130037 | 60 | 157 | 3.0 | 6.0 | 0.00 | 0.00 | 0.00 | 61 | 1004.4 |
| 20260904124530 | 60 | 241 | 2.0 | 7.0 | 0.00 | 0.00 | 0.00 | 65 | 1004.4 |
| 20260904123029 | 60 | 177 | 0.0 | 3.0 | 0.00 | 0.00 | 0.00 | 67 | 1004.3 |
| 20260904121526 | 60 | 176 | 0.0 | 4.0 | 0.00 | 0.00 | 0.00 | 62 | 1003.9 |
| 20260904120024 | 60 | 139 | 0.0 | 4.0 | 0.00 | 0.00 | 0.00 | 63 | 1003.8 |
| 20260904114523 | 60 | 140 | 0.0 | 0.0 | 0.00 | 0.00 | 0.00 | 65 | 1003.7 |
| 20260904113025 | 60 | 140 | 0.0 | 1.0 | 0.00 | 0.00 | 0.00 | 64 | 1003.4 |
| 20260904111519 | 61 | 140 | 0.0 | 1.0 | 0.00 | 0.00 | 0.00 | 67 | 1003.3 |
| 20260904110017 | 61 | 140 | 0.0 | 1.0 | 0.00 | 0.00 | 0.00 | 67 | 1003.1 |
| 20260904104515 | 61 | 140 | 0.0 | 2.0 | 0.00 | 0.00 | 0.00 | 63 | 1002.9 |
| 20260904103012 | 62 | 140 | 0.0 | 1.0 | 0.00 | 0.00 | 0.00 | 64 | 1002.9 |
| 20260904101610 | 62 | 140 | 0.0 | 0.0 | 0.00 | 0.00 | 0.00 | 61 | 1002.7 |
| 20260904100008 | 62 | 140 | 0.0 | 0.0 | 0.00 | 0.00 | 0.00 | 58 | 1002.6 |
| 20260904094505 | 63 | 140 | 0.0 | 2.0 | 0.00 | 0.00 | 0.00 | 59 | 1002.6 |
| 20260904093003 | 63 | 140 | 0.0 | 2.0 | 0.00 | 0.00 | 0.00 | 57 | 1002.4 |
| 20260904091501 | 64 | 140 | 0.0 | 2.0 | 0.00 | 0.00 | 0.00 | 58 | 1002.3 |
| 20260904090057 | 65 | 140 | 0.0 | 2.0 | 0.00 | 0.00 | 0.00 | 55 | 1002.2 |
| 20260904084556 | 66 | 140 | 0.0 | 2.0 | 0.00 | 0.00 | 0.00 | 52 | 1002.2 |
| 20260904083108 | 67 | 138 | 0.0 | 1.0 | 0.00 | 0.00 | 0.00 | 47 | 1002.0 |
| 20260904081553 | 67 | 137 | 0.0 | 4.0 | 0.00 | 0.00 | 0.00 | 46 | 1002.1 |
| 20260904080053 | 66 | 138 | 1.0 | 3.0 | 0.00 | 0.00 | 0.00 | 45 | 1002.1 |
| 20260904074604 | 66 | 138 | 2.0 | 4.0 | 0.00 | 0.00 | 0.00 | 50 | 1002.1 |
| 20260904073051 | 67 | 138 | 0.0 | 4.0 | 0.00 | 0.00 | 0.00 | 52 | 1002.2 |
| 20260904071545 | 68 | 53 | 0.0 | 0.0 | 0.00 | 0.00 | 0.00 | 51 | 1002.1 |
| 20260904070044 | 69 | 53 | 0.0 | 2.0 | 0.00 | 0.00 | 0.00 | 43 | 1002.0 |
| 20260904064541 | 69 | 53 | 0.0 | 2.0 | 0.00 | 0.00 | 0.00 | 43 | 1001.8 |
| 20260904063045 | 68 | 53 | 0.0 | 2.0 | 0.00 | 0.00 | 0.00 | 43 | 1001.7 |
| 20260904061540 | 69 | 53 | 0.0 | 0.0 | 0.00 | 0.00 | 0.00 | 44 | 1001.6 |
| 20260904060032 | 70 | 53 | 0.0 | 4.0 | 0.00 | 0.00 | 0.00 | 41 | 1001.5 |
| 20260904054535 | 69 | 40 | 2.0 | 4.0 | 0.00 | 0.00 | 0.00 | 42 | 1001.4 |
| 20260904053036 | 69 | 40 | 0.0 | 4.0 | 0.00 | 0.00 | 0.00 | 42 | 1001.4 |
| 20260904051532 | 70 | 152 | 0.0 | 2.0 | 0.00 | 0.00 | 0.00 | 40 | 1001.2 |
| 20260904050031 | 71 | 152 | 0.0 | 1.0 | 0.00 | 0.00 | 0.00 | 40 | 1001.2 |
| 20260904044530 | 71 | 152 | 0.0 | 2.0 | 0.00 | 0.00 | 0.00 | 41 | 1001.3 |
| 20260904043028 | 73 | 152 | 1.0 | 3.0 | 0.00 | 0.00 | 0.00 | 40 | 1001.4 |
| 20260904041534 | 75 | 152 | 1.0 | 3.0 | 0.00 | 0.00 | 0.00 | 36 | 1001.3 |
| 20260904040028 | 79 | 153 | 0.0 | 2.0 | 0.00 | 0.00 | 0.00 | 32 | 1001.2 |
| 20260904034527 | 80 | 153 | 0.0 | 1.0 | 0.00 | 0.00 | 0.00 | 26 | 1001.2 |
| 20260904033026 | 81 | 153 | 0.0 | 0.0 | 0.00 | 0.00 | 0.00 | 25 | 1001.2 |
| 20260904031526 | 82 | 153 | 0.0 | 1.0 | 0.00 | 0.00 | 0.00 | 24 | 1001.1 |
| 20260904030026 | 83 | 175 | 2.0 | 5.0 | 0.00 | 0.00 | 0.00 | 23 | 1001.0 |
| 20260904024526 | 84 | 231 | 5.0 | 9.0 | 0.00 | 0.00 | 0.00 | 22 | 1000.9 |
| 20260904023023 | 84 | 150 | 6.0 | 13.0 | 0.00 | 0.00 | 0.00 | 21 | 1000.8 |
| 20260904021533 | 84 | 184 | 9.0 | 13.0 | 0.00 | 0.00 | 0.00 | 21 | 1000.9 |
| 20260904020014 | 85 | 199 | 8.0 | 13.0 | 0.00 | 0.00 | 0.00 | 20 | 1001.0 |
| 20260904014513 | 85 | 184 | 6.0 | 13.0 | 0.00 | 0.00 | 0.00 | 19 | 1001.1 |
| 20260904013011 | 86 | 198 | 9.0 | 15.0 | 0.00 | 0.00 | 0.00 | 18 | 1001.2 |
| 20260904011510 | 86 | 157 | 7.0 | 11.0 | 0.00 | 0.00 | 0.00 | 18 | 1001.2 |
| 20260904010013 | 87 | 188 | 6.0 | 18.0 | 0.00 | 0.00 | 0.00 | 18 | 1001.4 |
| 20260904004503 | 88 | 171 | 6.0 | 16.0 | 0.00 | 0.00 | 0.00 | 17 | 1001.5 |
| 20260904003012 | 88 | 173 | 11.0 | 18.0 | 0.00 | 0.00 | 0.00 | 17 | 1001.5 |
| 20260904001549 | 88 | 211 | 5.0 | 14.0 | 0.00 | 0.00 | 0.00 | 18 | 1001.5 |
| 20260904000045 | 89 | 200 | 5.0 | 18.0 | 0.00 | 0.00 | 0.00 | 16 | 1001.6 |
| 20260903234543 | 89 | 198 | 6.0 | 12.0 | 0.00 | 0.00 | 0.00 | 16 | 1001.6 |
| 20260903233054 | 89 | 188 | 9.0 | 13.0 | 0.00 | 0.00 | 0.00 | 16 | 1001.8 |
| 20260903231541 | 90 | 236 | 9.0 | 18.0 | 0.00 | 0.00 | 0.00 | 16 | 1002.0 |
| 20260903230048 | 90 | 232 | 9.0 | 20.0 | 0.00 | 0.00 | 0.00 | 15 | 1002.1 |
| 20260903224538 | 90 | 162 | 9.0 | 21.0 | 0.00 | 0.00 | 0.00 | 15 | 1002.2 |
| 20260903223039 | 90 | 213 | 3.0 | 20.0 | 0.00 | 0.00 | 0.00 | 15 | 1002.4 |
| 20260903221535 | 90 | 169 | 7.0 | 20.0 | 0.00 | 0.00 | 0.00 | 14 | 1002.6 |
| 20260903220042 | 90 | 265 | 6.0 | 10.0 | 0.00 | 0.00 | 0.00 | 14 | 1002.7 |
| 20260903214537 | 90 | 192 | 4.0 | 17.0 | 0.00 | 0.00 | 0.00 | 15 | 1002.8 |
| 20260903213032 | 89 | 178 | 7.0 | 22.0 | 0.00 | 0.00 | 0.00 | 16 | 1003.2 |
| 20260903211529 | 89 | 193 | 9.0 | 20.0 | 0.00 | 0.00 | 0.00 | 17 | 1003.3 |
| 20260903210029 | 89 | 168 | 3.0 | 21.0 | 0.00 | 0.00 | 0.00 | 17 | 1003.4 |
| 20260903204531 | 88 | 196 | 8.0 | 20.0 | 0.00 | 0.00 | 0.00 | 17 | 1003.8 |
| 20260903203027 | 89 | 157 | 6.0 | 12.0 | 0.00 | 0.00 | 0.00 | 17 | 1003.9 |
| 20260903201526 | 89 | 196 | 8.0 | 13.0 | 0.00 | 0.00 | 0.00 | 17 | 1004.1 |
| 20260903200025 | 88 | 190 | 8.0 | 20.0 | 0.00 | 0.00 | 0.00 | 16 | 1004.5 |